{"data":{"norad_id":62656,"epoch":"2026-05-25T03:47:39.211872Z","epoch_age_seconds":54660,"freshness":"FRESH","line1":"1 62656U 25009AZ  26145.15809273  .00012994  00000+0  41826-3 0  9992","line2":"2 62656  97.3940 228.2598 0002547  87.9629 272.1904 15.32345875 75497","mean_motion":15.32345875,"eccentricity":0.0002547,"inclination_deg":97.394,"raan_deg":228.2598,"arg_perigee_deg":87.9629,"mean_anomaly_deg":272.1904,"bstar":0.00041826,"rev_number":7549,"period_min":93.973561941425,"perigee_km":467.0714329863,"apogee_km":470.55927051428,"semimajor_km":6846.9523517503,"source":"CELESTRAK","updated_at":"2026-05-25T13:38:03.160543Z"}}